Tracking 35055 objects as of 19-Aug-2026
HD Live streaming from Space Station
objects crossing your sky now

USA 561

Track USA 561 now!
10-day predictions


NORAD ID: 65707
Int'l Code: 2025-213D
Launch date: September 22, 2025
Source: United States (US)
Launch site: AIR FORCE WESTERN TEST RANGE (AFWTR)
Your satellite tracking list
Your tracking list is empty




NASA's NSSDC Master Catalog

Two Line Element Set (TLE):
1 65707U 25213D   26223.88257146 0.00000000  00000-0  00000-0 0    07
2 65707  70.0170 247.1162 0003000 224.4453 135.5547 14.96713300    06
Source of the keplerian elements: MCCANTS